Okmulgee, OK

12:07 AM CST on January 19, 2018 (GMT -0600)
Okmulgee Regional

Weather History for KOKM - December, 2013

Change the Weather History Date:

Friday, December 6, 2013

  Actual Average (KMKO) Record (KMKO)
Temperature  
Mean Temperature 18 °F -  
Max Temperature 23 °F 51 °F 73 °F (1998)
Min Temperature 12 °F 32 °F 12 °F (2013)
Degree Days  
Heating Degree Days 48    
Moisture  
Dew Point 13 °F    
Average Humidity 78    
Maximum Humidity 91    
Minimum Humidity 61    
Precipitation  
Precipitation 0.03 in - - ()
Sea Level Pressure  
Sea Level Pressure 30.40 in    
Wind  
Wind Speed 12 mph (North)    
Max Wind Speed 17 mph    
Max Gust Speed 23 mph    
Visibility 7 miles    
Events Snow    
Averages and records for this station are not official NWS values.
T = Trace of Precipitation, MM = Missing Value Source: NWS Daily Summary

Daily Weather History Graph

Daily Weather History Graph

Search for Another Location

Airport or City:

Trip Planner

Search our weather history database for the weather conditions in past years. The results will help you decide how hot, cold, wet, or windy it might be!

Date:

Astronomy

Dec. 06, 2013 Rise Set
Actual Time 7:19 AM CST 5:10 PM CST
Civil Twilight 6:51 AM CST 5:38 PM CST
Nautical Twilight 6:19 AM CST 6:10 PM CST
Astronomical Twilight 5:48 AM CST 6:41 PM CST
Moon 10:30 AM CST (12/6) 9:37 PM CST (12/6)
Length of Visible Light 10h 47m
Length of Day
9h 50m
Waxing Crescent, 19% of the Moon is Illuminated
Dec 6
Waxing Crescent
Dec 9
First Quarter
Dec 17
Full
Dec 25
Last Quarter
Jan 1
New

Hourly Weather History & Observations

Time (CST) Temp. Windchill Dew Point Humidity Pressure Visibility Wind Dir Wind Speed Gust Speed Precip Events Conditions
12:15 AM 21.0 °F 7.6 °F 18.5 °F 90% 30.27 in 5.0 mi North 15.0 mph - N/A   Overcast
12:35 AM 21.0 °F 9.9 °F 18.9 °F 91% 30.27 in 5.0 mi North 10.4 mph - N/A   Overcast
12:55 AM 20.7 °F 6.6 °F 18.3 °F 91% 30.26 in 5.0 mi North 16.1 mph - N/A   Overcast
1:15 AM 20.7 °F 7.6 °F 17.8 °F 89% 30.26 in 7.0 mi North 13.8 mph 19.6 mph N/A   Overcast
1:35 AM 20.7 °F 7.6 °F 18.0 °F 89% 30.25 in 4.0 mi North 13.8 mph 21.9 mph N/A Snow Light Snow
1:55 AM 20.3 °F 9.0 °F 17.8 °F 90% 30.27 in 3.0 mi North 10.4 mph - N/A Snow Light Snow
2:15 AM 20.3 °F 9.8 °F 17.8 °F 90% 30.28 in 3.0 mi North 9.2 mph - N/A Snow Light Snow
2:35 AM 20.1 °F 6.9 °F 17.6 °F 90% 30.28 in 2.5 mi North 13.8 mph 19.6 mph N/A Snow Light Snow
2:55 AM 19.9 °F 6.7 °F 17.6 °F 91% 30.26 in 1.8 mi North 13.8 mph 18.4 mph 0.01 in Snow Light Snow
3:15 AM 19.9 °F 7.3 °F 17.6 °F 91% 30.26 in 2.5 mi North 12.7 mph - N/A Snow Light Snow
3:35 AM 19.9 °F 6.2 °F 17.2 °F 89% 30.27 in 4.0 mi North 15.0 mph 19.6 mph N/A Snow Light Snow
3:55 AM 19.6 °F 6.8 °F 16.7 °F 89% 30.25 in 2.5 mi NNE 12.7 mph 20.7 mph N/A Snow Light Snow
4:15 AM 19.4 °F 7.9 °F 17.1 °F 91% 30.26 in 2.0 mi North 10.4 mph 17.3 mph N/A Snow Light Snow
4:35 AM 19.6 °F 6.8 °F 16.5 °F 88% 30.29 in 5.0 mi North 12.7 mph 18.4 mph N/A Snow Light Snow
4:55 AM 19.4 °F 8.6 °F 16.5 °F 89% 30.29 in 3.0 mi North 9.2 mph - N/A Snow Light Snow
5:15 AM 19.4 °F 6.0 °F 16.5 °F 89% 30.29 in 3.0 mi North 13.8 mph - N/A Snow Light Snow
5:35 AM 19.4 °F 7.9 °F 16.7 °F 89% 30.29 in 5.0 mi North 10.4 mph - N/A Snow Light Snow
5:55 AM 19.2 °F 7.7 °F 16.5 °F 89% 30.31 in 3.0 mi North 10.4 mph - N/A Snow Light Snow
6:15 AM 19.0 °F 7.5 °F 16.3 °F 89% 30.31 in 2.5 mi North 10.4 mph 19.6 mph N/A Snow Light Snow
6:35 AM 18.5 °F 4.3 °F 15.8 °F 89% 30.31 in 1.5 mi North 15.0 mph 23.0 mph N/A Snow Light Snow
6:55 AM 18.5 °F 4.9 °F 15.8 °F 89% 30.31 in 1.8 mi North 13.8 mph 18.4 mph 0.01 in Snow Light Snow
7:15 AM 18.1 °F 4.4 °F 15.4 °F 89% 30.32 in 1.8 mi North 13.8 mph 18.4 mph N/A Snow Light Snow
7:35 AM 18.3 °F 5.2 °F 15.6 °F 89% 30.31 in 2.0 mi North 12.7 mph - N/A Snow Light Snow
7:55 AM 18.1 °F 5.6 °F 15.8 °F 91% 30.34 in 1.0 mi North 11.5 mph 16.1 mph N/A Snow Light Snow
8:15 AM 18.1 °F 4.4 °F 15.6 °F 90% 30.35 in 1.0 mi North 13.8 mph - 0.01 in Snow Light Snow
8:35 AM 18.1 °F 4.4 °F 15.6 °F 90% 30.34 in 1.2 mi North 13.8 mph - 0.01 in Snow Light Snow
8:55 AM 18.3 °F 5.9 °F 15.8 °F 90% 30.35 in 0.8 mi North 11.5 mph 19.6 mph 0.01 in Snow Light Snow
9:15 AM 18.5 °F 6.1 °F 15.8 °F 89% 30.35 in 1.2 mi North 11.5 mph 19.6 mph N/A Snow Light Snow
9:35 AM 18.5 °F 6.8 °F 15.6 °F 89% 30.39 in 1.8 mi North 10.4 mph 17.3 mph N/A Snow Light Snow
9:55 AM 18.9 °F 8.8 °F 15.4 °F 87% 30.41 in 4.0 mi North 8.1 mph - N/A Snow Light Snow
10:15 AM 19.4 °F 6.0 °F 15.6 °F 85% 30.39 in 5.0 mi North 13.8 mph 19.6 mph N/A Snow Light Snow
10:35 AM 19.9 °F 9.3 °F 15.6 °F 83% 30.41 in 10.0 mi North 9.2 mph 12.7 mph N/A   Overcast
10:55 AM 20.3 °F 7.7 °F 16.0 °F 83% 30.41 in 10.0 mi North 12.7 mph 18.4 mph N/A   Overcast
11:15 AM 20.5 °F 6.4 °F 15.6 °F 81% 30.41 in 10.0 mi North 16.1 mph 21.9 mph N/A   Overcast
11:35 AM 20.8 °F 6.4 °F 15.6 °F 80% 30.40 in 10.0 mi North 17.3 mph 20.7 mph N/A   Overcast
11:55 AM 21.0 °F 7.1 °F 15.6 °F 80% 30.40 in 10.0 mi North 16.1 mph 19.6 mph N/A   Overcast
12:15 PM 21.0 °F 7.6 °F 15.6 °F 80% 30.40 in 10.0 mi North 15.0 mph 20.7 mph N/A   Overcast
12:35 PM 21.4 °F 9.1 °F 15.8 °F 79% 30.40 in 10.0 mi North 12.7 mph 19.6 mph N/A   Overcast
12:55 PM 21.6 °F 8.2 °F 15.6 °F 78% 30.40 in 10.0 mi North 15.0 mph 21.9 mph N/A   Overcast
1:15 PM 21.7 °F 9.0 °F 15.8 °F 78% 30.40 in 10.0 mi North 13.8 mph 18.4 mph N/A   Overcast
1:35 PM 22.1 °F 8.5 °F 15.4 °F 76% 30.40 in 10.0 mi North 16.1 mph - N/A   Overcast
1:55 PM 22.5 °F 10.5 °F 14.9 °F 73% 30.40 in 10.0 mi North 12.7 mph - N/A   Overcast
2:15 PM 23.0 °F 10.6 °F 15.1 °F 72% 30.40 in 10.0 mi North 13.8 mph - N/A   Overcast
2:35 PM 22.8 °F 9.9 °F 13.8 °F 68% 30.40 in 10.0 mi North 15.0 mph 21.9 mph N/A   Overcast
2:55 PM 22.6 °F 11.9 °F 13.3 °F 67% 30.41 in 10.0 mi North 10.4 mph 20.7 mph N/A   Overcast
3:15 PM 23.0 °F 11.1 °F 13.8 °F 68% 30.41 in 10.0 mi North 12.7 mph 18.4 mph N/A   Overcast
3:35 PM 22.5 °F 9.4 °F 12.7 °F 66% 30.42 in 10.0 mi North 15.0 mph 18.4 mph N/A   Overcast
3:55 PM 22.6 °F 9.6 °F 12.7 °F 66% 30.42 in 10.0 mi North 15.0 mph 19.6 mph N/A   Overcast
4:15 PM 22.1 °F 10.0 °F 11.8 °F 65% 30.44 in 10.0 mi North 12.7 mph - N/A   Overcast
4:35 PM 22.1 °F 10.6 °F 11.8 °F 65% 30.45 in 10.0 mi North 11.5 mph 17.3 mph N/A   Overcast
5:55 PM 21.0 °F - 10.0 °F 63% 30.47 in 10.0 mi North - - N/A   Overcast
6:15 PM 19.6 °F - 9.9 °F 66% 30.48 in 10.0 mi North - - N/A   Mostly Cloudy
6:35 PM 18.7 °F 7.0 °F 8.4 °F 64% 30.49 in 10.0 mi North 10.4 mph - N/A   Scattered Clouds
6:55 PM 18.0 °F 7.7 °F 7.7 °F 64% 30.51 in 10.0 mi North 8.1 mph - N/A   Clear
7:15 PM 16.9 °F 7.4 °F 7.3 °F 66% 30.51 in 10.0 mi North 6.9 mph - N/A   Clear
7:35 PM 16.7 °F 7.2 °F 6.3 °F 64% 30.51 in 10.0 mi NNE 6.9 mph - N/A   Clear
7:55 PM 15.3 °F 5.4 °F 5.5 °F 65% 30.52 in 10.0 mi NNE 6.9 mph - N/A   Clear
8:15 PM 14.5 °F 4.6 °F 5.5 °F 68% 30.53 in 10.0 mi North 6.9 mph - N/A   Clear
8:35 PM 14.4 °F 4.3 °F 4.8 °F 66% 30.54 in 10.0 mi North 6.9 mph - N/A   Clear
8:55 PM 15.3 °F 5.4 °F 4.5 °F 62% 30.55 in 10.0 mi North 6.9 mph - N/A   Clear
9:15 PM 14.9 °F 4.0 °F 4.5 °F 63% 30.55 in 10.0 mi North 8.1 mph - N/A   Clear
9:35 PM 15.4 °F 3.0 °F 4.3 °F 61% 30.55 in 10.0 mi North 10.4 mph - N/A   Clear
9:55 PM 15.4 °F 4.6 °F 4.3 °F 61% 30.55 in 10.0 mi North 8.1 mph - N/A   Clear
10:15 PM 14.4 °F 4.3 °F 3.9 °F 63% 30.56 in 10.0 mi NNE 6.9 mph - N/A   Clear
10:35 PM 14.0 °F 2.0 °F 4.1 °F 65% 30.56 in 10.0 mi NNE 9.2 mph - N/A   Clear
10:55 PM 13.1 °F 1.8 °F 3.7 °F 66% 30.57 in 10.0 mi NNE 8.1 mph - N/A   Clear
11:15 PM 12.7 °F 2.4 °F 3.2 °F 66% 30.58 in 10.0 mi NNE 6.9 mph - N/A   Clear
11:35 PM 13.1 °F 0.9 °F 3.4 °F 65% 30.58 in 10.0 mi North 9.2 mph - N/A   Clear
11:55 PM 12.9 °F 1.6 °F 3.2 °F 65% 30.58 in 10.0 mi NNE 8.1 mph - N/A   Clear